Weather History for Rennes, France

Change the Weather History Date:

Thursday, November 14, 2013

  Actual Average Record
Temperature  
Mean Temperature 44 °F -  
Max Temperature 52 °F 50 °F 60 °F (2006)
Min Temperature 36 °F 38 °F 28 °F (2004)
Degree Days  
Heating Degree Days 21    
Moisture  
Dew Point 41 °F    
Average Humidity 84    
Maximum Humidity 100    
Minimum Humidity 62    
Precipitation  
Precipitation 0.08 in - - ()
Sea Level Pressure  
Sea Level Pressure 30.37 in    
Wind  
Wind Speed 7 mph ()    
Max Wind Speed 23 mph    
Max Gust Speed 38 mph    
Visibility 5.9 miles    
Events Fog , Rain    
Averages and records for this station are not official NWS values.
T = Trace of Precipitation, MM = Missing Value Source: Averaged Metar Reports

Daily Weather History Graph

Daily Weather History Graph

Search for Another Location

Airport:

Trip Planner

Search our weather history database for the weather conditions in past years. The results will help you decide how hot, cold, wet, or windy it might be!

Date:

Astronomy

Nov. 14, 2013 Rise Set
Actual Time 8:12 AM CET 5:30 PM CET
Civil Twilight 7:38 AM CET 6:04 PM CET
Nautical Twilight 7:00 AM CET 6:41 PM CET
Astronomical Twilight 6:23 AM CET 7:18 PM CET
Moon 3:54 PM CET (11/14) 4:38 AM CET (11/14)
Length of Visible Light 10h 25m
Length of Day
9h 18m
Waxing Gibbous, 90% of the Moon is Illuminated
Nov 14
Waxing Gibbous
Nov 17
Full
Nov 25
Last Quarter
Dec 3
New
Dec 9
First Quarter

Hourly Weather History & Observations

Time (CET) Temp. Windchill Dew Point Humidity Pressure Visibility Wind Dir Wind Speed Gust Speed Precip Events Conditions
12:00 AM 37.4 °F - 37.4 °F 100% 30.45 in 0.7 mi Calm Calm - N/A Fog Patches of Fog
12:30 AM 37.4 °F - 35.6 °F 93% 30.45 in 0.1 mi West 2.3 mph - N/A Fog Fog
1:00 AM 37 °F - 37 °F 100% 30.45 in 1 mi SW 1.2 mph - -   Mist
1:00 AM 37.4 °F - 37.4 °F 100% 30.42 in 0.9 mi Calm Calm - N/A   Partly Cloudy
1:30 AM 35.6 °F - 35.6 °F 100% 30.42 in 0.1 mi WSW 1.2 mph - N/A Fog Fog
2:00 AM 37.4 °F 34.9 °F 37.4 °F 100% 30.42 in 0.6 mi South 3.5 mph - N/A Fog Patches of Fog
2:30 AM 37.4 °F 33.8 °F 37.4 °F 100% 30.39 in 4.3 mi South 4.6 mph - N/A   Overcast
3:00 AM 41.0 °F 38.0 °F 41.0 °F 100% 30.39 in 5.6 mi SSW 4.6 mph - N/A   Overcast
3:30 AM 41.0 °F 38.0 °F 41.0 °F 100% 30.39 in 5.0 mi SW 4.6 mph - N/A   Overcast
4:00 AM 43 °F - 42 °F 96% 30.39 in 10 mi SW 3.5 mph - -   Clear
4:00 AM 42.8 °F 41.1 °F 42.8 °F 100% 30.36 in 6.2 mi SSW 3.5 mph - N/A   Overcast
4:30 AM 42.8 °F 39.3 °F 42.8 °F 100% 30.36 in 6.2 mi SW 5.8 mph - N/A   Mostly Cloudy
5:00 AM 42.8 °F 40.1 °F 41.0 °F 93% 30.36 in 6.2 mi West 4.6 mph - N/A   Mostly Cloudy
5:30 AM 44.6 °F 40.7 °F 42.8 °F 93% 30.33 in 6.2 mi West 6.9 mph - N/A   Unknown
6:00 AM 44.6 °F 40.2 °F 42.8 °F 93% 30.33 in 6.2 mi West 8.1 mph - N/A   Overcast
6:30 AM 46.4 °F 41.9 °F 42.8 °F 87% 30.33 in 6.2 mi West 9.2 mph - N/A   Overcast
7:00 AM 46 °F - 43 °F 84% 30.35 in 12 mi West 10.4 mph - -   Clear
7:00 AM 46.4 °F 41.5 °F 42.8 °F 87% 30.33 in 6.2 mi West 10.4 mph - N/A   Mostly Cloudy
7:30 AM 46.4 °F 41.1 °F 42.8 °F 87% 30.33 in 6.2 mi West 11.5 mph - N/A   Mostly Cloudy
8:00 AM 46.4 °F 41.1 °F 42.8 °F 87% 30.33 in 6.2 mi West 11.5 mph - N/A   Mostly Cloudy
8:30 AM 46.4 °F 41.5 °F 42.8 °F 87% 30.33 in 6.2 mi West 10.4 mph - N/A   Partly Cloudy
9:00 AM 46.4 °F 41.1 °F 42.8 °F 87% 30.33 in 6.2 mi West 11.5 mph - N/A   Partly Cloudy
9:30 AM 48.2 °F - 44.6 °F 87% 30.33 in 6.2 mi West 11.5 mph - N/A   Mostly Cloudy
10:00 AM 48 °F - 44 °F 83% 30.37 in 11 mi West 11.5 mph - -   Clear
10:00 AM 48.2 °F - 44.6 °F 87% 30.36 in 6.2 mi West 10.4 mph - N/A   Mostly Cloudy
10:30 AM 50.0 °F - 46.4 °F 87% 30.36 in 6.2 mi NW 10.4 mph - N/A   Mostly Cloudy
11:00 AM 50.0 °F - 46.4 °F 87% 30.36 in 6.2 mi WNW 10.4 mph - N/A   Mostly Cloudy
11:30 AM 50.0 °F - 42.8 °F 76% 30.36 in 6.2 mi NNW 10.4 mph - N/A Rain Rain
12:00 PM 50.0 °F - 44.6 °F 82% 30.36 in 6.2 mi NNW 15.0 mph - N/A   Mostly Cloudy
12:30 PM 50.0 °F - 42.8 °F 76% 30.36 in 6.2 mi NW 13.8 mph - N/A   Mostly Cloudy
1:00 PM 49 °F - 43 °F 72% 30.39 in 14 mi NNW 16.1 mph - -   Clear
1:00 PM 50.0 °F - 42.8 °F 76% 30.36 in 6.2 mi NNW 16.1 mph - N/A   Mostly Cloudy
1:30 PM 51.8 °F - 42.8 °F 71% 30.36 in 6.2 mi NW 16.1 mph 29.9 mph N/A   Mostly Cloudy
2:00 PM 50.0 °F - 42.8 °F 76% 30.36 in 6.2 mi NW 20.7 mph - N/A Rain Light Rain
2:30 PM 48.2 °F - 41.0 °F 76% 30.36 in 6.2 mi NW 23.0 mph 36.8 mph N/A Rain Light Rain
3:00 PM 48.2 °F - 41.0 °F 76% 30.36 in 6.2 mi NNW 20.7 mph 33.4 mph N/A Rain Light Rain
3:30 PM 50.0 °F - 41.0 °F 71% 30.36 in 6.2 mi NW 15.0 mph - N/A   Unknown
4:00 PM 50 °F - 41 °F 62% 30.36 in 25 mi NW 13.8 mph - -   Clear
4:00 PM 50.0 °F - 41.0 °F 71% 30.33 in 6.2 mi NW 13.8 mph - N/A   Unknown
4:30 PM 48.2 °F - 37.4 °F 66% 30.33 in 6.2 mi NNW 21.9 mph 34.5 mph N/A   Partly Cloudy
5:00 PM 48.2 °F - 39.2 °F 71% 30.36 in 6.2 mi NNW 15.0 mph - N/A   Unknown
5:30 PM 48.2 °F - 37.4 °F 66% 30.36 in 6.2 mi NNW 13.8 mph - N/A   Scattered Clouds
6:00 PM 46.4 °F 39.2 °F 37.4 °F 71% 30.36 in 6.2 mi NNW 18.4 mph - N/A   Mostly Cloudy
6:30 PM 46.4 °F 41.1 °F 39.2 °F 76% 30.36 in 6.2 mi NW 11.5 mph - N/A   Scattered Clouds
7:00 PM 47 °F - 39 °F 67% 30.40 in 11 mi North 9.2 mph - -   Clear
7:00 PM 46.4 °F 41.5 °F 39.2 °F 76% 30.39 in - North 10.4 mph - N/A   Haze
7:30 PM 44.6 °F 36.4 °F 39.2 °F 81% 30.39 in 0.8 mi NNW 20.7 mph 38.0 mph N/A Rain Rain
8:00 PM 44.6 °F 35.9 °F 39.2 °F 81% 30.39 in - North 23.0 mph 35.7 mph N/A Rain Light Rain
8:30 PM 46.4 °F 40.7 °F 39.2 °F 76% 30.39 in 6.2 mi North 12.7 mph - N/A   Mostly Cloudy
9:00 PM 44.6 °F 40.7 °F 39.2 °F 81% 30.39 in 6.2 mi NW 6.9 mph - N/A   Mostly Cloudy
9:30 PM 42.8 °F - 39.2 °F 87% 30.39 in 6.2 mi Variable 2.3 mph - N/A   Mostly Cloudy
10:00 PM 43 °F - 40 °F 83% 30.43 in 22 mi NNW 5.8 mph - -   Clear
10:00 PM 42.8 °F 39.3 °F 39.2 °F 87% 30.42 in 6.2 mi NNW 5.8 mph - N/A   Mostly Cloudy
10:30 PM 44.6 °F 38.8 °F 39.2 °F 81% 30.42 in 6.2 mi NNW 11.5 mph - N/A   Mostly Cloudy
11:00 PM 46.4 °F 40.7 °F 41.0 °F 81% 30.42 in 6.2 mi NNW 12.7 mph 27.6 mph N/A Rain Light Rain
11:30 PM 44.6 °F 38.4 °F 39.2 °F 81% 30.42 in 6.2 mi North 12.7 mph - N/A   Mostly Cloudy